Flag for Norfolk Island Weather past 2 weeks in Kingston, Norfolk Island

Now
72 °F

Sprinkles. Partly sunny.


Feels Like: 67 °F
Forecast: 68 / 76 °F
Wind: 8 mph from Southeast

Location: Norfolk Island Airport

Current Time: Dec 21, 2014 at 7:46:21 AM

Latest Report: Dec 21, 2014 at 7:30 AM


Visibility: 4 mi

Pressure: 29.95 "Hg

Humidity: 94%

Dew point: 70 °F

Location of KingstonLocation

Historic Weather in Kingston — Graph

°F

Kingston temperature yesterday

Maximum temperature yesterday: 77 °F (at 2:00 PM)
Minimum temperature yesterday: 68 °F (at 9:30 AM)
Average temperature yesterday: 73 °F

Past Weeks' High & Low Weather Summary

 TemperatureHumidityPressure
High77 °F (Dec 11, 2:30 PM)100% (Dec 13, 9:00 PM)30.21 "Hg (Dec 13, 9:00 PM)
Low64 °F (Dec 7, 3:00 AM)47% (Dec 10, 11:00 AM)29.42 "Hg (Dec 16, 2:30 AM)
Average70 °F81%29.92 "Hg
* Reported Dec 6 6:30 AM — Dec 21 6:34 AM, Kingston, Weather by CustomWeather, © 2014

Note: Actual official high and low records may vary slightly from our data, if they occured in-between our weather recording intervals... More about our weather records

Advertising

Kingston weather history for previous 24 hours

 ConditionsComfort  
Time TempWeatherWind HumidityBarometerVisibility
6:34 AM
Dec 21
72 °FCloudy.6 mph94%29.92 "HgN/A
6:30 AM72 °FCloudy.5 mph94%29.92 "HgN/A
6:00 AM72 °FCloudy.5 mph94%29.92 "HgN/A
5:31 AM70 °FMostly cloudy.2 mph100%29.92 "Hg4 mi
4:30 AM70 °FOvercast.No wind94%29.92 "HgN/A
4:00 AM70 °FOvercast.No wind94%29.92 "HgN/A
3:30 AM70 °FMostly cloudy.2 mph94%29.89 "HgN/A
3:00 AM70 °FOvercast.No wind94%29.92 "HgN/A
2:30 AM70 °FPassing clouds.5 mph94%29.92 "HgN/A
2:00 AM70 °FClear.6 mph94%29.92 "HgN/A
1:30 AM70 °FClear.1 mph94%29.92 "HgN/A
1:00 AM70 °FClear.2 mph94%29.92 "HgN/A
12:30 AM70 °FClear.3 mph94%29.92 "HgN/A
11:30 PM
Dec 20
70 °FPassing clouds.6 mph100%29.95 "HgN/A
10:30 PM70 °FClear.No wind94%29.95 "HgN/A
9:30 PM70 °FClear.No wind94%29.95 "HgN/A
8:34 PM72 °FPassing clouds.7 mph94%29.92 "HgN/A
8:00 PM72 °FPartly cloudy.9 mph94%29.92 "HgN/A
7:30 PM72 °FMostly cloudy.8 mph94%29.92 "HgN/A
7:00 PM73 °FMostly cloudy.9 mph83%29.92 "HgN/A
6:30 PM73 °FPartly sunny.9 mph78%29.89 "HgN/A
6:00 PM75 °FPartly sunny.9 mph65%29.89 "HgN/A
5:30 PM77 °FPassing clouds.7 mph65%29.86 "HgN/A
4:30 PM75 °FBroken clouds.8 mph83%29.86 "HgN/A
4:00 PM73 °FSprinkles. Partly sunny.8 mph89%29.89 "HgN/A
3:30 PM75 °FPartly sunny.7 mph78%29.89 "HgN/A
3:00 PM75 °FBroken clouds.6 mph78%29.89 "HgN/A
2:30 PM75 °FPartly sunny.8 mph74%29.89 "HgN/A
2:00 PM77 °FScattered showers. Partly sunny.8 mph79%29.89 "HgN/A
1:30 PM73 °FSprinkles. Partly sunny.8 mph83%29.89 "HgN/A
1:00 PM73 °FPartly sunny.7 mph83%29.89 "HgN/A
12:30 PM73 °FBroken clouds.7 mph89%29.92 "HgN/A
11:30 AM72 °FScattered showers. Partly sunny.9 mph94%29.92 "HgN/A
11:00 AM72 °FScattered showers. Partly sunny.9 mph94%29.92 "HgN/A
10:30 AM70 °FSprinkles. Partly sunny.8 mph100%29.92 "Hg3 mi
10:00 AM70 °FRain showers. Partly sunny.16 mph94%29.92 "Hg2 mi
9:30 AM68 °FLots of rain. Partly sunny.18 mph94%29.89 "Hg1 mi
9:27 AM70 °FLots of rain. Partly sunny.16 mph94%29.92 "Hg1 mi
9:00 AM73 °FSprinkles. Broken clouds.9 mph94%29.92 "Hg2 mi
8:30 AM75 °FSprinkles. Partly sunny.8 mph89%29.92 "HgN/A
8:00 AM75 °FBroken clouds.8 mph89%29.92 "HgN/A
7:30 AM75 °FPartly sunny.13 mph89%29.92 "HgN/A
7:00 AM73 °FPartly sunny.12 mph94%29.89 "HgN/A
Weather by CustomWeather, © 2014

See weather overviewHow to use our weather pages